When you browse on this site, cookies collect data to enhance your experience and personalize the content and advertising you see.
Visit our Privacy Policy to learn more. By continuing to use the site, you agree to this use of cookies and data.
  • In Czech Republic
  • List of Countries
  • For 7 days
  • Water Temperature
  • Weather Map
  • Weather Widgets
  • user-avatar
    Login

    Hourly Weather Malaya Olsa

    Today, 4 June, Thursday

    Time Temperature Precipitation Wind Pressure Humidity
    00:00 +8°C° 0 mm 2 mps 740 mmHg 93%
    01:00 +8°C° 0 mm 2 mps 740 mmHg 93%
    02:00 +8°C° 0 mm 1 mps 740 mmHg 94%
    03:00 +9°C° 0 mm 1 mps 740 mmHg 95%
    04:00 +9°C° 0 mm 1 mps 739 mmHg 95%
    05:00 +9°C° 0 mm 1 mps 739 mmHg 95%
    06:00 +10°C° 0 mm 1 mps 739 mmHg 90%
    07:00 +12°C° 0 mm 2 mps 739 mmHg 85%
    08:00 +13°C° 0 mm 2 mps 739 mmHg 80%
    09:00 +14°C° 0 mm 2 mps 739 mmHg 75%
    10:00 +14°C° 0 mm 3 mps 739 mmHg 70%
    11:00 +15°C° 0 mm 4 mps 738 mmHg 64%
    12:00 +15°C° 0.2 mm 4 mps 738 mmHg 65%
    13:00 +17°C° 0.2 mm 4 mps 738 mmHg 65%
    14:00 +17°C° 0.2 mm 4 mps 738 mmHg 66%
    15:00 +17°C° 0.2 mm 4 mps 738 mmHg 67%
    16:00 +17°C° 0.2 mm 4 mps 738 mmHg 69%
    17:00 +17°C° 0.2 mm 4 mps 737 mmHg 71%
    18:00 +14°C° 0.4 mm 3 mps 737 mmHg 78%
    19:00 +13°C° 0.4 mm 3 mps 737 mmHg 84%
    20:00 +12°C° 0.4 mm 2 mps 737 mmHg 90%
    21:00 +10°C° 0 mm 2 mps 738 mmHg 91%
    22:00 +10°C° 0 mm 2 mps 738 mmHg 93%
    23:00 +9°C° 0 mm 2 mps 738 mmHg 94%

    Tomorrow, 5 June, Friday

    Time Temperature Precipitation Wind Pressure Humidity
    00:00 +9°C° 0 mm 2 mps 738 mmHg 94%
    01:00 +8°C° 0 mm 2 mps 738 mmHg 95%
    02:00 +8°C° 0 mm 2 mps 738 mmHg 95%
    03:00 +8°C° 0 mm 2 mps 738 mmHg 96%
    04:00 +8°C° 0 mm 2 mps 738 mmHg 96%
    05:00 +9°C° 0 mm 1 mps 738 mmHg 97%
    06:00 +11°C° 0 mm 1 mps 738 mmHg 91%
    07:00 +13°C° 0 mm 1 mps 738 mmHg 86%
    08:00 +15°C° 0 mm 2 mps 739 mmHg 80%
    09:00 +16°C° 0 mm 2 mps 739 mmHg 72%
    10:00 +18°C° 0 mm 2 mps 739 mmHg 65%
    11:00 +19°C° 0 mm 3 mps 739 mmHg 57%
    12:00 +20°C° 0 mm 3 mps 739 mmHg 56%
    13:00 +21°C° 0 mm 3 mps 739 mmHg 55%
    14:00 +22°C° 0 mm 3 mps 739 mmHg 55%
    15:00 +21°C° 0.3 mm 4 mps 739 mmHg 63%
    16:00 +21°C° 0.3 mm 4 mps 740 mmHg 71%
    17:00 +20°C° 0.3 mm 5 mps 740 mmHg 80%
    18:00 +19°C° 0.3 mm 4 mps 740 mmHg 84%
    19:00 +18°C° 0.3 mm 4 mps 740 mmHg 89%
    20:00 +17°C° 0.3 mm 3 mps 740 mmHg 94%
    21:00 +16°C° 0.1 mm 3 mps 740 mmHg 95%
    22:00 +16°C° 0.1 mm 3 mps 740 mmHg 95%
    23:00 +14°C° 0.1 mm 3 mps 741 mmHg 95%

    Day after tomorrow, 6 June, Saturday

    Time Temperature Precipitation Wind Pressure Humidity
    00:00 +14°C° 0.1 mm 3 mps 741 mmHg 96%
    01:00 +14°C° 0.1 mm 3 mps 741 mmHg 96%
    02:00 +14°C° 0.1 mm 4 mps 741 mmHg 96%
    03:00 +14°C° 0 mm 3 mps 741 mmHg 96%
    04:00 +14°C° 0 mm 3 mps 741 mmHg 96%
    05:00 +14°C° 0 mm 3 mps 741 mmHg 95%
    06:00 +17°C° 0 mm 4 mps 741 mmHg 92%
    07:00 +18°C° 0 mm 4 mps 742 mmHg 88%
    08:00 +20°C° 0 mm 5 mps 742 mmHg 84%
    09:00 +20°C° 0 mm 5 mps 743 mmHg 82%
    10:00 +20°C° 0 mm 5 mps 743 mmHg 80%
    11:00 +21°C° 0 mm 5 mps 743 mmHg 77%
    12:00 +21°C° 0.1 mm 5 mps 744 mmHg 76%
    13:00 +22°C° 0.1 mm 5 mps 744 mmHg 74%
    14:00 +23°C° 0.1 mm 5 mps 744 mmHg 72%
    15:00 +23°C° 0.4 mm 5 mps 744 mmHg 75%
    16:00 +22°C° 0.4 mm 4 mps 744 mmHg 77%
    17:00 +22°C° 0.4 mm 4 mps 744 mmHg 79%
    18:00 +21°C° 0.4 mm 3 mps 745 mmHg 83%
    19:00 +20°C° 0.4 mm 3 mps 745 mmHg 87%
    20:00 +18°C° 0.4 mm 2 mps 746 mmHg 91%
    21:00 +18°C° 0 mm 2 mps 746 mmHg 91%
    22:00 +18°C° 0 mm 1 mps 746 mmHg 92%
    23:00 +16°C° 0 mm 1 mps 747 mmHg 93%

    7 June, Sunday

    Time Temperature Precipitation Wind Pressure Humidity
    00:00 +15°C° 0 mm 1 mps 747 mmHg 92%
    01:00 +15°C° 0 mm 1 mps 747 mmHg 92%
    02:00 +14°C° 0 mm 0 mps 748 mmHg 92%
    03:00 +15°C° 0 mm 1 mps 748 mmHg 93%
    04:00 +15°C° 0 mm 1 mps 748 mmHg 94%
    05:00 +16°C° 0 mm 2 mps 748 mmHg 94%
    06:00 +17°C° 0 mm 2 mps 748 mmHg 91%
    07:00 +19°C° 0 mm 3 mps 748 mmHg 88%
    08:00 +20°C° 0 mm 3 mps 748 mmHg 85%
    09:00 +22°C° 0.5 mm 4 mps 748 mmHg 81%
    10:00 +23°C° 0.5 mm 4 mps 748 mmHg 78%
    11:00 +26°C° 0.5 mm 4 mps 748 mmHg 75%
    12:00 +26°C° 1.3 mm 4 mps 748 mmHg 73%
    13:00 +26°C° 1.3 mm 4 mps 748 mmHg 72%
    14:00 +27°C° 1.3 mm 4 mps 748 mmHg 70%
    15:00 +27°C° 0 mm 4 mps 748 mmHg 69%
    16:00 +27°C° 0 mm 4 mps 747 mmHg 68%
    17:00 +27°C° 0 mm 4 mps 747 mmHg 67%
    18:00 +25°C° 0 mm 4 mps 747 mmHg 72%
    19:00 +23°C° 0 mm 4 mps 747 mmHg 76%
    20:00 +21°C° 0 mm 4 mps 747 mmHg 80%
    21:00 +20°C° 0 mm 4 mps 748 mmHg 83%
    22:00 +20°C° 0 mm 4 mps 748 mmHg 87%
    23:00 +19°C° 0 mm 4 mps 748 mmHg 90%

    8 June, Monday

    Time Temperature Precipitation Wind Pressure Humidity
    00:00 +18°C° 0 mm 3 mps 748 mmHg 91%
    01:00 +18°C° 0 mm 3 mps 748 mmHg 92%
    02:00 +17°C° 0 mm 3 mps 748 mmHg 94%
    03:00 +17°C° 0 mm 3 mps 748 mmHg 94%
    04:00 +17°C° 0 mm 3 mps 748 mmHg 93%
    05:00 +17°C° 0 mm 3 mps 748 mmHg 93%
    06:00 +19°C° 0 mm 3 mps 748 mmHg 89%
    07:00 +20°C° 0 mm 3 mps 749 mmHg 85%
    08:00 +22°C° 0 mm 3 mps 749 mmHg 81%
    09:00 +25°C° 0 mm 3 mps 749 mmHg 74%
    10:00 +26°C° 0 mm 4 mps 749 mmHg 67%
    11:00 +28°C° 0 mm 4 mps 749 mmHg 61%
    12:00 +28°C° 0 mm 4 mps 749 mmHg 59%
    13:00 +28°C° 0 mm 5 mps 748 mmHg 58%
    14:00 +28°C° 0 mm 5 mps 748 mmHg 57%
    15:00 +28°C° 0.3 mm 4 mps 748 mmHg 63%
    16:00 +27°C° 0.3 mm 4 mps 748 mmHg 68%
    17:00 +26°C° 0.3 mm 4 mps 748 mmHg 73%
    18:00 +25°C° 0 mm 3 mps 748 mmHg 78%
    19:00 +24°C° 0 mm 3 mps 748 mmHg 82%
    20:00 +21°C° 0 mm 3 mps 748 mmHg 86%
    21:00 +21°C° 0 mm 3 mps 748 mmHg 88%
    22:00 +20°C° 0 mm 3 mps 748 mmHg 91%
    23:00 +19°C° 0 mm 3 mps 748 mmHg 93%

    9 June, Tuesday

    Time Temperature Precipitation Wind Pressure Humidity
    00:00 +19°C° 0 mm 3 mps 748 mmHg 93%
    01:00 +19°C° 0 mm 3 mps 748 mmHg 93%
    02:00 +19°C° 0 mm 3 mps 748 mmHg 94%
    03:00 +19°C° 0 mm 4 mps 748 mmHg 93%
    04:00 +19°C° 0 mm 4 mps 748 mmHg 92%
    05:00 +19°C° 0 mm 4 mps 748 mmHg 92%
    06:00 +21°C° 0 mm 4 mps 748 mmHg 87%
    07:00 +22°C° 0 mm 4 mps 748 mmHg 83%
    08:00 +23°C° 0 mm 5 mps 748 mmHg 78%
    09:00 +26°C° 0.1 mm 5 mps 748 mmHg 73%
    10:00 +27°C° 0.1 mm 5 mps 748 mmHg 68%
    11:00 +28°C° 0.1 mm 6 mps 749 mmHg 63%
    12:00 +28°C° 1 mm 5 mps 748 mmHg 65%
    13:00 +28°C° 1 mm 5 mps 748 mmHg 68%
    14:00 +28°C° 1 mm 5 mps 748 mmHg 71%
    15:00 +27°C° 0.7 mm 4 mps 748 mmHg 73%
    16:00 +27°C° 0.7 mm 4 mps 748 mmHg 74%
    17:00 +27°C° 0.7 mm 4 mps 748 mmHg 76%
    18:00 +26°C° 0.1 mm 4 mps 748 mmHg 79%
    19:00 +25°C° 0.1 mm 3 mps 748 mmHg 82%
    20:00 +24°C° 0.1 mm 3 mps 748 mmHg 84%
    21:00 +22°C° 0 mm 3 mps 748 mmHg 86%
    22:00 +21°C° 0 mm 3 mps 748 mmHg 88%
    23:00 +21°C° 0 mm 3 mps 749 mmHg 90%
    Show more